Regional Weather Roundup
Issued by NWS

Home | Current Version | Previous Version | Graphics & Text | Print | Product List | Glossary On
Versions: 1 2 3 4 5 6 7 8 9 10 11 12 13 14 15 16 17 18 19 20 21 22 23 24 25 26 27
000
ASUS45 KCYS 271510
RWRWY

WYOMING REGIONAL WEATHER ROUNDUP
NATIONAL WEATHER SERVICE CHEYENNE WY
900 AM MDT MON MAR 27 2017

NOTE:  "FAIR" INDICATES FEW OR NO CLOUDS BELOW 12,000 FEET
WITH NO SIGNIFICANT WEATHER AND/OR OBSTRUCTIONS TO VISIBILITY.

WYZ001-271600-
YELLOWSTONE NATIONAL PARK

CITY           SKY/WX    TMP DP  RH WIND       PRES   REMARKS
LK YELLOWSTONE   N/A     29  28  96 CALM      29.91S
W YELLOWSTONE  NOT AVBL

$$
WYZ002>013-054>058-071-098>099-271600-
NORTHERN WYOMING

CITY           SKY/WX    TMP DP  RH WIND       PRES   REMARKS
JACKSON        MOSUNNY   34  34 100 SW7       29.91R WCI  28
CODY           CLOUDY    45  25  45 W6        29.86R
GREYBULL       CLOUDY    44  34  67 SE5       29.85R
WORLAND        FAIR      44  34  67 S6        29.85R
SHERIDAN       FAIR      47  37  68 CALM      29.84R
BUFFALO        FAIR      48  30  49 CALM      29.84R
GILLETTE       FAIR      39  35  86 S12       29.84R WCI  32
HULETT         FAIR      41  34  75 CALM      29.86F
NEWCASTLE      FAIR      41  37  87 CALM      29.87S

$$
WYZ014>020-022>026-101>103-271600-
CENTRAL WYOMING

CITY           SKY/WX    TMP DP  RH WIND       PRES   REMARKS
BIG PINEY      FAIR      30  26  85 NE3       29.94S
PINEDALE       FAIR      30  23  74 N5        29.95S WCI  25
DUBOIS         FAIR      34  23  64 N9        29.87S WCI  26
LANDER         FAIR      35  27  72 SE3       29.86S
RIVERTON       FAIR      42  25  50 W6        29.87S
CASPER         FAIR      44  26  49 SW14G20   29.87R
DOUGLAS        FAIR      44  30  57 CALM      29.87R

$$
WYZ021-027>030-104>119-271600-
SOUTHERN WYOMING

CITY           SKY/WX    TMP DP  RH WIND       PRES   REMARKS
EVANSTON       CLOUDY    35  28  75 S7        29.91F WCI  29
KEMMERER         N/A     32  27  80 CALM      29.93S
ROCK SPRINGS   FAIR      41  27  57 SE5       29.93S
DIXON            N/A     39  29  69 W5        29.98R
RAWLINS        FAIR      39  24  55 SW10      29.93F WCI  32
SARATOGA       CLOUDY    36  28  75 SE3       29.96S
LARAMIE        FAIR      33  28  81 SW9       29.93R WCI  25
CHEYENNE       PTSUNNY   38  36  92 SW8       29.94R FOG     WCI  32
TORRINGTON     FAIR      36  33  89 S7        29.90R WCI  30
PINE BLUFFS    FAIR      36  34  93 CALM      29.95S

$$




USA.gov is the U.S. government's official web portal to all federal, state and local government web resources and services.